SCP
0 0 0 0 0 0 0 0 0 0 0 0 0 0 0 0 0 0 0 0 0 0 0 0 0 0 0 0 0 0 0 0 0 0 0 0 0 0 0 0 0 0 0
0 0 0 0 0 0 0 0 0 0 0 0 0 0 0 0 0 0 0 0 0 0 0 0 0 0 0 0 0 0 0 0 0 0 0 0 0 0 0 0 0 0 0
0 0 0 0 0 0 0 0 0 0 0 0 0 0 0 0 0 0 0 0 0 0 0 0 0 0 0 0 0 0 0 0 0 0 0 0 0 0 0 0 0 0 0
0 0 0 0 0 0 0 0 0 0 0 0 0 0 0 0 0 0 0 0 0 0 0 0 0 0 0 0 0 0 0 0 0 0 0 0 0 0 0 0 0 0 0
0 0 0 0 0 0 0 0 0 0 0 0 0 0 0 0 0 0 0 0 0 0 0 0 0 0 0 0 0 0 0 0 0 0 0 0 0 0 0 0 0 0 0
0 0 0 0 0 0 0 0 0 0 0 0 0 0 0 0 0 0 0 0 0 0 0 0 0 0 0 0 0 0 0 0 0 0 0 0 0 0 0 0 0 0 0
0 0 0 0 0 0 0 0 0 0 0 0 0 0 0 0 0 0 0 0 0 0 0 0 0 0 0 0 0 0 0 0 0 0 0 0 0 0 0 0 0 0 0
0 0 0 0 0 0 0 0 0 0 0 0 0 0 0 0 0 0 0 0 0 0 0 0 0 0 0 0 0 0 0 0 0 0 0 0 0 0 0 0 0 0 0
0 0 0 0 0 0 0 0 0 0 0 0 0 0 0 0 0 0 0 0 0 0 0 0 0 0 0 0 0 0 0 0 0 0 0 0 0 0 0 0 0 0 0
0 0 0 0 0 0 0 0 0 0 0 0 0 0 0 0 0 0 0 0 0 0 0 0 0 0 0 0 0 0 0 0 0 0 0 0 0 0 0 0 0 0 0
0 0 0 0 0 0 0 0 0 0 0 0 0 0 0 0 0 0 0 0 0 0 0 0 0 0 0 0 0 0 0 0 0 0 0 0 0 0 0 0 0 0 0
0 0 0 0 0 0 0 0 0 0 0 0 0 0 0 0 0 0 0 0 0 0 0 0 0 0 0 0 0 0 0 0 0 0 0 0 0 0 0 0 0 0 0
0 0 0 0 0 0 0 0 0 0 0 0 0 0 0 0 0 0 0 0 0 0 0 0 0 0 0 0 0 0 0 0 0 0 0 0 0 0 0 0 0 0 0
0 0 0 0 0 0 0 0 0 0 0 0 0 0 0 0 0 0 0 0 0 0 0 0 0 0 0 0 0 0 0 0 0 0 0 0 0 0 0 0 0 0 0
1 0 0 0 0 0 0 0 0 0 0 0 0 0 0 0 0 0 0 0 0 0 0 0 0 0 0 0 0 0 0 0 0 0 0 0 0 0 0 0 0 0 0
1 1 1 1 1 0 0 0 0 0 0 0 0 0 0 0 0 0 0 0 0 0 0 0 0 0 0 0 0 0 0 0 0 0 0 0 0 0 0 0 0 0 0
1 1 1 1 1 0 0 0 0 0 0 0 0 0 0 0 0 0 0 0 0 0 0 0 0 0 0 0 0 0 0 0 0 0 0 0 0 0 0 0 0 0 0
1 1 1 1 1 0 0 0 0 0 0 0 0 0 0 0 0 0 0 0 0 0 0 0 0 0 0 0 0 0 0 0 0 0 0 0 0 0 0 0 0 0 0
1 1 1 1 0 0 0 0 0 0 0 0 0 0 0 0 0 0 0 0 0 0 0 0 0 0 0 0 0 0 0 0 0 -0 -0 -0 0 0 0 0 0 0 0
1 1 1 0 0 0 0 0 0 0 0 0 0 0 0 0 0 0 0 0 0 0 0 0 0 0 0 0 0 0 0 0 0 -0 -0 -0 -0 0 0 0 0 0 0
1 1 1 0 0 0 0 0 0 0 0 0 0 0 0 0 0 0 0 0 0 0 0 0 0 0 0 0 0 0 0 0 0 0 0 0 0 0 0 0 0 0 0
1 1 1 0 0 0 0 0 0 0 0 0 0 0 0 0 0 0 0 0 0 0 0 0 0 0 0 0 0 0 0 0 0 0 0 0 0 0 0 0 0 0 0
1 1 0 0 0 0 0 0 0 0 0 0 0 0 0 0 0 0 0 0 0 0 0 0 0 0 0 0 0 0 0 0 0 0 0 0 0 0 0 0 0 0 0
1 0 0 0 0 0 0 0 0 0 0 0 0 0 0 0 0 0 0 0 0 0 0 0 0 0 0 0 0 0 0 0 0 0 0 0 0 0 0 0 0 0 0
0 0 0 0 0 0 0 0 0 0 0 0 0 0 0 0 0 0 0 0 0 0 0 0 0 0 0 0 0 0 0 0 0 0 0 0 0 0 0 0 0 0 0
0 0 0 0 0 0 0 0 0 0 0 0 0 0 0 0 0 0 0 0 0 0 0 0 0 0 0 0 0 0 0 0 0 0 0 0 0 0 0 0 0 0 0
Wind_Speed
7 9 16 16 16 16 16 17 17 17 17 17 17 17 16 16 15 14 14 13 13 13 13 13 14 14 15 15 15 15 15 15 15 16 16 16 16 16 16 16 15 12 16
11 11 18 17 17 16 16 16 16 17 17 17 16 16 16 15 14 14 13 13 13 13 13 13 14 14 15 15 15 15 14 14 14 15 15 15 15 15 15 15 14 11 16
14 11 15 17 17 17 16 16 16 16 16 16 16 15 15 14 14 14 13 13 13 13 13 13 14 14 14 14 14 14 14 14 14 15 14 10 11 14 15 15 15 15 15
13 10 12 18 17 17 16 16 16 16 15 15 15 15 14 14 13 13 13 13 13 13 13 13 14 14 14 14 14 14 14 14 15 14 8 8 9 14 14 15 14 14 14
12 9 13 19 18 17 16 16 15 15 15 15 14 14 14 13 13 13 13 13 13 13 13 13 13 13 13 13 12 13 13 13 14 11 7 7 7 13 14 14 14 14 13
11 9 13 19 18 17 16 16 15 15 14 14 14 13 13 13 13 13 13 13 13 13 13 13 13 13 12 12 11 11 12 13 11 8 7 7 7 12 13 13 13 13 13
11 8 11 18 18 17 16 16 15 14 14 14 13 13 13 13 13 13 12 12 12 12 12 12 12 12 11 10 10 11 12 13 9 8 7 6 7 11 13 13 12 12 12
12 9 10 18 18 17 16 16 15 14 14 14 13 13 12 12 12 12 12 12 12 12 11 11 11 10 9 9 9 10 13 13 9 8 6 6 9 11 12 12 12 12 12
9 9 7 9 13 16 16 16 15 15 14 13 13 13 12 12 12 11 11 11 11 10 10 10 9 9 8 8 8 10 12 13 8 6 7 5 9 10 11 11 11 11 11
8 7 7 7 7 7 9 15 16 15 14 14 13 13 12 12 11 11 9 9 10 9 9 9 8 8 7 7 8 9 11 11 7 6 4 6 10 10 11 11 10 10 10
9 6 7 7 6 6 6 11 13 14 14 13 11 13 10 5 5 6 8 9 9 8 8 7 7 7 6 5 7 9 9 4 6 4 4 7 9 10 10 10 10 10 10
12 9 7 7 7 6 7 5 4 5 6 5 4 5 4 4 3 5 6 8 8 7 7 6 6 6 5 3 4 7 4 6 5 4 4 8 9 9 9 9 9 9 9
13 11 9 7 7 6 4 4 3 3 3 4 5 5 4 4 3 3 2 3 3 4 3 4 4 3 3 3 3 3 4 4 3 3 4 8 8 9 9 8 8 8 8
12 12 10 8 7 6 4 4 4 3 3 3 4 5 4 3 2 2 2 2 2 2 2 2 2 2 3 3 4 4 5 3 3 2 3 8 8 8 9 9 8 8 8
11 11 11 9 8 6 5 4 5 4 4 4 4 4 5 3 3 2 2 2 2 2 2 2 2 2 2 3 3 4 4 5 4 3 2 7 8 7 8 8 8 8 8
12 11 10 10 9 7 6 5 4 4 4 4 4 4 5 4 3 3 2 2 2 2 2 2 2 2 2 2 3 3 4 4 4 3 2 3 7 7 7 8 8 8 8
11 10 10 10 9 8 7 6 5 4 4 4 4 5 5 5 4 4 3 2 2 2 3 2 2 2 2 2 2 3 3 3 3 3 2 1 2 5 6 6 7 7 8
9 10 10 11 10 9 7 6 4 4 4 4 4 4 5 5 5 4 3 3 2 2 2 2 2 2 2 2 2 1 2 2 2 3 2 2 2 2 4 5 6 6 7
10 11 11 10 11 10 8 6 5 4 4 4 4 4 5 6 6 5 4 3 3 3 2 2 2 2 2 2 1 1 1 1 1 2 3 3 3 2 2 3 5 6 7
10 10 11 9 10 9 7 5 4 4 4 4 4 5 6 5 6 5 4 4 4 3 2 2 2 2 2 2 2 2 1 0 1 2 3 2 3 4 3 3 3 4 7
9 10 11 10 9 8 6 6 6 6 5 4 5 6 7 6 7 6 4 4 4 4 4 4 3 3 2 2 2 2 2 1 1 2 2 2 3 4 4 4 3 3 3
10 10 10 11 11 10 8 6 5 5 4 4 4 5 7 7 7 7 6 5 5 4 4 4 3 3 2 1 2 2 1 2 2 1 2 3 4 3 4 5 4 4 4
10 11 10 11 11 11 9 6 4 3 3 3 3 4 5 7 7 6 7 6 5 5 4 4 4 5 3 1 1 3 3 2 2 2 2 2 3 3 4 4 5 5 5
9 8 8 9 9 10 10 9 9 7 6 5 4 4 5 6 7 7 7 6 6 5 5 5 4 3 4 3 1 1 1 3 2 1 2 1 2 3 4 4 4 5 5
6 7 7 7 8 8 9 11 10 7 5 4 4 6 6 5 6 7 7 6 6 5 5 5 5 4 3 4 3 2 2 1 1 2 1 2 2 2 3 4 4 4 5
5 5 6 7 7 8 9 9 9 9 7 7 6 6 5 4 4 6 6 6 6 5 5 5 5 5 4 4 3 3 3 3 3 3 2 2 2 2 2 3 4 4 4
Wind_Direction
151 153 148 141 134 128 123 119 116 115 116 118 120 122 123 123 123 121 118 115 112 109 106 104 104 105 107 107 109 110 109 110 110 109 107 106 104 103 102 101 100 100 103
144 151 148 144 138 132 127 123 120 119 120 121 122 123 124 124 124 123 120 118 115 112 109 107 106 107 108 109 110 111 111 110 110 110 108 106 104 103 103 103 103 106 105
142 147 148 145 140 135 131 128 126 124 124 124 125 125 125 125 125 125 124 121 117 114 111 109 109 111 111 111 112 112 111 109 109 107 102 99 104 106 106 106 105 105 105
141 142 147 148 143 138 135 133 131 129 128 128 128 128 128 127 128 127 125 122 119 116 115 114 114 114 114 114 114 114 112 110 106 103 95 100 107 109 108 106 106 106 106
139 140 153 150 146 143 140 138 136 134 132 132 131 131 131 130 129 127 125 123 120 118 118 117 117 116 116 116 116 116 115 112 107 99 92 92 100 111 110 109 108 108 108
139 142 156 151 149 146 145 142 140 138 137 136 134 134 134 133 130 127 125 124 122 120 118 117 118 118 117 118 119 120 121 116 105 101 98 101 107 114 113 111 110 110 109
142 145 155 153 151 150 149 147 145 143 141 139 138 136 134 133 132 129 128 125 123 121 118 117 117 117 117 118 121 123 123 122 113 108 105 106 113 117 116 115 113 113 112
145 146 153 156 155 154 153 152 149 148 147 144 142 140 136 135 134 133 130 128 125 122 119 116 115 114 111 111 120 126 126 128 122 118 113 115 124 121 120 119 118 117 116
144 144 148 154 157 159 158 156 154 153 152 149 145 143 141 139 137 134 132 131 127 124 122 120 116 111 109 112 122 131 133 130 122 124 127 124 130 128 125 123 123 122 122
143 144 144 146 148 154 159 160 158 158 155 152 150 148 145 144 142 139 134 135 131 127 125 123 118 113 110 113 128 138 136 126 126 125 125 138 137 135 132 130 129 127 125
157 152 147 147 146 147 153 167 161 161 159 155 155 154 143 121 120 130 140 140 135 131 127 123 118 113 103 106 129 135 124 125 129 128 134 147 145 142 139 137 136 134 132
170 167 157 154 151 151 164 155 145 146 148 137 131 129 113 111 123 129 150 142 137 131 125 119 113 100 84 75 113 118 116 131 132 139 152 155 153 149 144 144 143 143 140
172 172 166 160 156 156 149 140 130 121 123 124 127 124 119 112 113 104 103 115 107 104 80 85 83 77 85 94 99 116 130 134 141 152 165 164 160 156 152 152 153 152 149
174 176 169 163 157 154 143 143 134 133 133 134 137 136 130 126 119 119 110 102 88 80 81 76 81 83 93 108 120 132 141 144 148 150 175 171 166 164 163 163 164 163 158
177 178 173 166 162 155 147 154 151 149 148 144 144 147 145 144 145 140 131 117 110 104 104 99 94 95 102 115 132 143 151 153 155 158 173 179 174 171 171 174 176 172 168
180 179 174 170 167 159 159 160 158 158 151 149 156 161 157 153 154 152 148 141 133 127 119 116 112 108 108 115 129 145 151 151 156 160 164 185 186 182 183 185 186 183 180
179 175 176 174 167 166 164 169 162 161 157 161 166 167 166 163 162 159 158 160 152 135 124 109 95 92 104 110 119 128 142 152 159 167 166 176 193 195 193 196 198 197 195
168 171 178 182 174 174 171 167 162 166 166 169 169 167 174 172 167 159 165 173 152 133 125 118 108 99 93 103 115 122 130 140 162 171 172 182 190 202 209 211 209 208 209
171 172 178 182 177 178 175 169 165 168 173 171 170 170 176 176 172 164 170 167 148 138 134 137 109 120 123 117 114 93 106 150 180 191 199 203 207 210 212 225 224 221 221
172 175 177 178 178 174 168 162 158 164 175 174 177 177 173 177 175 168 169 163 152 143 139 127 118 95 109 126 105 79 36 315 207 216 225 219 220 223 222 229 232 236 234
171 176 178 176 175 170 169 176 177 181 181 184 184 179 176 176 175 172 171 161 160 160 161 147 127 114 103 114 95 58 19 2 262 238 230 229 232 230 225 226 226 232 242
174 176 181 179 178 177 180 180 172 164 173 181 177 174 177 177 177 181 170 167 165 153 151 153 140 127 114 120 125 107 35 350 329 264 235 228 235 232 232 230 224 227 233
176 181 187 185 180 179 173 159 146 129 123 152 168 175 183 181 180 176 172 166 167 165 170 170 158 147 147 131 129 140 149 215 291 315 275 245 236 229 237 236 231 231 230
180 181 187 184 182 179 172 170 169 173 177 182 178 176 178 183 180 174 170 168 168 170 172 177 169 156 146 154 139 111 144 154 158 301 317 293 256 237 238 239 236 230 225
167 173 181 177 179 178 178 178 178 179 177 164 163 170 178 182 180 175 171 169 171 174 176 170 161 161 157 158 159 150 131 105 128 156 260 306 300 258 241 239 238 235 228
153 166 171 174 179 175 179 181 181 179 170 163 169 174 178 177 177 176 171 172 174 174 178 176 169 168 168 159 158 159 160 162 179 171 196 242 269 283 269 246 236 236 231